owner,sensor,date,latitude,longitude,vertical_datum,sea_water_practical_salinity,qcFlag 
LUMCON,ioos:station:LUMCON:102:1,2016-04-01T00:00:00Z,29.1870,-90.6093,2.29,13.11,1111122 
LUMCON,ioos:station:LUMCON:102:1,2016-04-01T00:15:00Z,29.1870,-90.6093,2.31,12.93,1111122 
LUMCON,ioos:station:LUMCON:102:1,2016-04-01T00:30:00Z,29.1870,-90.6093,2.3,13.06,1111122 
LUMCON,ioos:station:LUMCON:102:1,2016-04-01T00:45:00Z,29.1870,-90.6093,2.28,13.18,1111122 
LUMCON,ioos:station:LUMCON:102:1,2016-04-01T01:00:00Z,29.1870,-90.6093,2.28,13.28,1111122 
LUMCON,ioos:station:LUMCON:102:1,2016-04-01T01:15:00Z,29.1870,-90.6093,2.26,13.29,1111122 
LUMCON,ioos:station:LUMCON:102:1,2016-04-01T01:30:00Z,29.1870,-90.6093,2.28,13.19,1111122 
LUMCON,ioos:station:LUMCON:102:1,2016-04-01T01:45:00Z,29.1870,-90.6093,2.27,13.19,1111122 
LUMCON,ioos:station:LUMCON:102:1,2016-04-01T02:00:00Z,29.1870,-90.6093,2.24,13.16,1111122 
LUMCON,ioos:station:LUMCON:102:1,2016-04-01T02:15:00Z,29.1870,-90.6093,2.22,13.09,1111122 
LUMCON,ioos:station:LUMCON:102:1,2016-04-01T02:30:00Z,29.1870,-90.6093,2.22,13.16,1111122 
LUMCON,ioos:station:LUMCON:102:1,2016-04-01T02:45:00Z,29.1870,-90.6093,2.2,13.29,1111122 
LUMCON,ioos:station:LUMCON:102:1,2016-04-01T03:00:00Z,29.1870,-90.6093,2.2,12.88,1111122 
LUMCON,ioos:station:LUMCON:102:1,2016-04-01T03:15:00Z,29.1870,-90.6093,2.18,13.09,1111122 
LUMCON,ioos:station:LUMCON:102:1,2016-04-01T03:30:00Z,29.1870,-90.6093,2.17,13.11,1111122 
LUMCON,ioos:station:LUMCON:102:1,2016-04-01T03:45:00Z,29.1870,-90.6093,2.17,12.95,1111122 
LUMCON,ioos:station:LUMCON:102:1,2016-04-01T04:00:00Z,29.1870,-90.6093,2.15,12.88,1111122 
LUMCON,ioos:station:LUMCON:102:1,2016-04-01T04:15:00Z,29.1870,-90.6093,2.14,12.83,1111122 
LUMCON,ioos:station:LUMCON:102:1,2016-04-01T04:30:00Z,29.1870,-90.6093,2.13,12.83,1111122 
LUMCON,ioos:station:LUMCON:102:1,2016-04-01T04:45:00Z,29.1870,-90.6093,2.12,12.81,1111122 
LUMCON,ioos:station:LUMCON:102:1,2016-04-01T05:00:00Z,29.1870,-90.6093,2.11,12.58,1111122 
LUMCON,ioos:station:LUMCON:102:1,2016-04-01T05:15:00Z,29.1870,-90.6093,2.1,12.75,1111122 
LUMCON,ioos:station:LUMCON:102:1,2016-04-01T05:30:00Z,29.1870,-90.6093,2.09,13.03,1111122 
LUMCON,ioos:station:LUMCON:102:1,2016-04-01T05:45:00Z,29.1870,-90.6093,2.08,12.55,1111122 
LUMCON,ioos:station:LUMCON:102:1,2016-04-01T06:00:00Z,29.1870,-90.6093,2.07,12.5,1111122 
LUMCON,ioos:station:LUMCON:102:1,2016-04-01T06:15:00Z,29.1870,-90.6093,2.04,12.49,1111122 
LUMCON,ioos:station:LUMCON:102:1,2016-04-01T06:30:00Z,29.1870,-90.6093,2.03,12.45,1111122 
LUMCON,ioos:station:LUMCON:102:1,2016-04-01T06:45:00Z,29.1870,-90.6093,2.01,12.52,1111122 
LUMCON,ioos:station:LUMCON:102:1,2016-04-01T07:00:00Z,29.1870,-90.6093,2.01,12.42,1111122 
LUMCON,ioos:station:LUMCON:102:1,2016-04-01T07:15:00Z,29.1870,-90.6093,2.0,12.0,1111122 
LUMCON,ioos:station:LUMCON:102:1,2016-04-01T07:30:00Z,29.1870,-90.6093,2.0,12.18,1111122 
LUMCON,ioos:station:LUMCON:102:1,2016-04-01T07:45:00Z,29.1870,-90.6093,1.98,12.18,1111122 
LUMCON,ioos:station:LUMCON:102:1,2016-04-01T08:00:00Z,29.1870,-90.6093,1.98,12.26,1111122 
LUMCON,ioos:station:LUMCON:102:1,2016-04-01T08:15:00Z,29.1870,-90.6093,1.98,12.47,1111122 
LUMCON,ioos:station:LUMCON:102:1,2016-04-01T08:30:00Z,29.1870,-90.6093,1.98,12.16,1111122 
LUMCON,ioos:station:LUMCON:102:1,2016-04-01T08:45:00Z,29.1870,-90.6093,1.99,12.19,1111122 
LUMCON,ioos:station:LUMCON:102:1,2016-04-01T09:00:00Z,29.1870,-90.6093,1.98,12.15,1111122 
LUMCON,ioos:station:LUMCON:102:1,2016-04-01T09:15:00Z,29.1870,-90.6093,1.96,12.43,1111122 
LUMCON,ioos:station:LUMCON:102:1,2016-04-01T09:30:00Z,29.1870,-90.6093,1.99,12.61,1111122 
LUMCON,ioos:station:LUMCON:102:1,2016-04-01T09:45:00Z,29.1870,-90.6093,1.97,12.1,1111122 
LUMCON,ioos:station:LUMCON:102:1,2016-04-01T10:00:00Z,29.1870,-90.6093,1.98,11.93,1111122 
LUMCON,ioos:station:LUMCON:102:1,2016-04-01T10:15:00Z,29.1870,-90.6093,1.98,12.07,1111122 
LUMCON,ioos:station:LUMCON:102:1,2016-04-01T10:30:00Z,29.1870,-90.6093,2.0,12.02,1111122 
LUMCON,ioos:station:LUMCON:102:1,2016-04-01T10:45:00Z,29.1870,-90.6093,1.97,11.98,1111122 
LUMCON,ioos:station:LUMCON:102:1,2016-04-01T11:00:00Z,29.1870,-90.6093,1.98,11.94,1111122 
LUMCON,ioos:station:LUMCON:102:1,2016-04-01T11:15:00Z,29.1870,-90.6093,1.97,12.04,1111122 
LUMCON,ioos:station:LUMCON:102:1,2016-04-01T11:30:00Z,29.1870,-90.6093,2.0,12.06,1111122 
LUMCON,ioos:station:LUMCON:102:1,2016-04-01T11:45:00Z,29.1870,-90.6093,2.01,12.33,1111122 
LUMCON,ioos:station:LUMCON:102:1,2016-04-01T12:00:00Z,29.1870,-90.6093,2.04,12.41,1111122 
LUMCON,ioos:station:LUMCON:102:1,2016-04-01T12:15:00Z,29.1870,-90.6093,2.02,12.35,1111122 
LUMCON,ioos:station:LUMCON:102:1,2016-04-01T12:30:00Z,29.1870,-90.6093,2.05,12.4,1111122 
LUMCON,ioos:station:LUMCON:102:1,2016-04-01T12:45:00Z,29.1870,-90.6093,2.05,12.46,1111122 
LUMCON,ioos:station:LUMCON:102:1,2016-04-01T13:00:00Z,29.1870,-90.6093,2.06,12.69,1111122 
LUMCON,ioos:station:LUMCON:102:1,2016-04-01T13:15:00Z,29.1870,-90.6093,2.06,12.56,1111122 
LUMCON,ioos:station:LUMCON:102:1,2016-04-01T13:30:00Z,29.1870,-90.6093,2.09,12.54,1111122 
LUMCON,ioos:station:LUMCON:102:1,2016-04-01T13:45:00Z,29.1870,-90.6093,2.11,12.55,1111122 
LUMCON,ioos:station:LUMCON:102:1,2016-04-01T14:00:00Z,29.1870,-90.6093,2.14,13.0,1111122 
LUMCON,ioos:station:LUMCON:102:1,2016-04-01T14:15:00Z,29.1870,-90.6093,2.21,12.79,1111122 
LUMCON,ioos:station:LUMCON:102:1,2016-04-01T14:30:00Z,29.1870,-90.6093,2.16,12.96,1111122 
LUMCON,ioos:station:LUMCON:102:1,2016-04-01T14:45:00Z,29.1870,-90.6093,2.16,12.49,1111122 
LUMCON,ioos:station:LUMCON:102:1,2016-04-01T15:00:00Z,29.1870,-90.6093,2.14,12.46,1111122 
LUMCON,ioos:station:LUMCON:102:1,2016-04-01T15:15:00Z,29.1870,-90.6093,2.16,12.05,1111122 
LUMCON,ioos:station:LUMCON:102:1,2016-04-01T15:30:00Z,29.1870,-90.6093,2.15,12.04,1111122 
LUMCON,ioos:station:LUMCON:102:1,2016-04-01T15:45:00Z,29.1870,-90.6093,2.21,12.07,1111122 
LUMCON,ioos:station:LUMCON:102:1,2016-04-01T16:00:00Z,29.1870,-90.6093,2.2,11.95,1111122 
LUMCON,ioos:station:LUMCON:102:1,2016-04-01T16:15:00Z,29.1870,-90.6093,2.22,12.12,1111122 
LUMCON,ioos:station:LUMCON:102:1,2016-04-01T16:30:00Z,29.1870,-90.6093,2.23,12.09,1111122 
LUMCON,ioos:station:LUMCON:102:1,2016-04-01T16:45:00Z,29.1870,-90.6093,2.22,12.2,1111122 
LUMCON,ioos:station:LUMCON:102:1,2016-04-01T17:00:00Z,29.1870,-90.6093,2.19,12.27,1111122 
LUMCON,ioos:station:LUMCON:102:1,2016-04-01T17:15:00Z,29.1870,-90.6093,2.25,12.25,1111122 
LUMCON,ioos:station:LUMCON:102:1,2016-04-01T17:30:00Z,29.1870,-90.6093,2.24,12.18,1111122 
LUMCON,ioos:station:LUMCON:102:1,2016-04-01T17:45:00Z,29.1870,-90.6093,2.24,12.25,1111122 
LUMCON,ioos:station:LUMCON:102:1,2016-04-01T18:00:00Z,29.1870,-90.6093,2.23,12.44,1111122 
LUMCON,ioos:station:LUMCON:102:1,2016-04-01T18:15:00Z,29.1870,-90.6093,2.21,12.38,1111122 
LUMCON,ioos:station:LUMCON:102:1,2016-04-01T18:30:00Z,29.1870,-90.6093,2.26,12.58,1111122 
LUMCON,ioos:station:LUMCON:102:1,2016-04-01T18:45:00Z,29.1870,-90.6093,2.29,12.55,1111122 
LUMCON,ioos:station:LUMCON:102:1,2016-04-01T19:00:00Z,29.1870,-90.6093,2.23,12.79,1111122 
LUMCON,ioos:station:LUMCON:102:1,2016-04-01T19:15:00Z,29.1870,-90.6093,2.22,12.59,1111122 
LUMCON,ioos:station:LUMCON:102:1,2016-04-01T19:30:00Z,29.1870,-90.6093,2.24,12.41,1111122 
LUMCON,ioos:station:LUMCON:102:1,2016-04-01T19:45:00Z,29.1870,-90.6093,2.24,12.31,1111122 
LUMCON,ioos:station:LUMCON:102:1,2016-04-01T20:00:00Z,29.1870,-90.6093,2.19,12.45,1111122 
LUMCON,ioos:station:LUMCON:102:1,2016-04-01T20:15:00Z,29.1870,-90.6093,2.22,12.54,1111122 
LUMCON,ioos:station:LUMCON:102:1,2016-04-01T20:30:00Z,29.1870,-90.6093,2.23,12.63,1111122 
LUMCON,ioos:station:LUMCON:102:1,2016-04-01T20:45:00Z,29.1870,-90.6093,2.23,12.82,1111122 
LUMCON,ioos:station:LUMCON:102:1,2016-04-01T21:00:00Z,29.1870,-90.6093,2.22,12.6,1111122 
LUMCON,ioos:station:LUMCON:102:1,2016-04-01T21:15:00Z,29.1870,-90.6093,2.24,12.82,1111122 
LUMCON,ioos:station:LUMCON:102:1,2016-04-01T21:30:00Z,29.1870,-90.6093,2.31,12.73,1111122 
LUMCON,ioos:station:LUMCON:102:1,2016-04-01T21:45:00Z,29.1870,-90.6093,2.22,12.76,1111122 
LUMCON,ioos:station:LUMCON:102:1,2016-04-01T22:15:00Z,29.1870,-90.6093,2.17,12.2,1111122 
LUMCON,ioos:station:LUMCON:102:1,2016-04-01T22:30:00Z,29.1870,-90.6093,2.14,11.88,1111122 
LUMCON,ioos:station:LUMCON:102:1,2016-04-01T22:45:00Z,29.1870,-90.6093,2.13,11.89,1111122 
LUMCON,ioos:station:LUMCON:102:1,2016-04-01T23:00:00Z,29.1870,-90.6093,2.15,11.61,1111122 
LUMCON,ioos:station:LUMCON:102:1,2016-04-01T23:15:00Z,29.1870,-90.6093,2.17,11.27,1111122 
LUMCON,ioos:station:LUMCON:102:1,2016-04-01T23:30:00Z,29.1870,-90.6093,2.13,11.41,1111122 
LUMCON,ioos:station:LUMCON:102:1,2016-04-01T23:45:00Z,29.1870,-90.6093,2.1,11.35,1111122 
LUMCON,ioos:station:LUMCON:102:1,2016-04-02T00:00:00Z,29.1870,-90.6093,2.07,11.25,1111122 
LUMCON,ioos:station:LUMCON:102:1,2016-04-02T00:15:00Z,29.1870,-90.6093,2.01,11.3,1111122 
LUMCON,ioos:station:LUMCON:102:1,2016-04-02T00:30:00Z,29.1870,-90.6093,1.95,10.92,1111122 
LUMCON,ioos:station:LUMCON:102:1,2016-04-02T00:45:00Z,29.1870,-90.6093,1.89,10.79,1111122 
LUMCON,ioos:station:LUMCON:102:1,2016-04-02T01:00:00Z,29.1870,-90.6093,1.88,11.33,1111122 
LUMCON,ioos:station:LUMCON:102:1,2016-04-02T01:15:00Z,29.1870,-90.6093,1.88,11.17,1111122 
LUMCON,ioos:station:LUMCON:102:1,2016-04-02T01:30:00Z,29.1870,-90.6093,1.91,11.16,1111122 
LUMCON,ioos:station:LUMCON:102:1,2016-04-02T01:45:00Z,29.1870,-90.6093,1.91,11.14,1111122 
LUMCON,ioos:station:LUMCON:102:1,2016-04-02T02:00:00Z,29.1870,-90.6093,1.97,10.98,1111122 
LUMCON,ioos:station:LUMCON:102:1,2016-04-02T02:15:00Z,29.1870,-90.6093,1.98,11.21,1111122 
LUMCON,ioos:station:LUMCON:102:1,2016-04-02T02:30:00Z,29.1870,-90.6093,1.99,11.07,1111122 
LUMCON,ioos:station:LUMCON:102:1,2016-04-02T02:45:00Z,29.1870,-90.6093,2.0,11.16,1111122 
LUMCON,ioos:station:LUMCON:102:1,2016-04-02T03:00:00Z,29.1870,-90.6093,2.02,11.26,1111122 
LUMCON,ioos:station:LUMCON:102:1,2016-04-02T03:15:00Z,29.1870,-90.6093,2.0,11.4,1111122 
LUMCON,ioos:station:LUMCON:102:1,2016-04-02T03:30:00Z,29.1870,-90.6093,1.96,11.29,1111122 
LUMCON,ioos:station:LUMCON:102:1,2016-04-02T03:45:00Z,29.1870,-90.6093,1.9,11.46,1111122 
LUMCON,ioos:station:LUMCON:102:1,2016-04-02T04:00:00Z,29.1870,-90.6093,1.89,11.26,1111122 
LUMCON,ioos:station:LUMCON:102:1,2016-04-02T04:15:00Z,29.1870,-90.6093,1.86,11.29,1111122 
LUMCON,ioos:station:LUMCON:102:1,2016-04-02T04:30:00Z,29.1870,-90.6093,1.84,11.37,1111122 
LUMCON,ioos:station:LUMCON:102:1,2016-04-02T04:45:00Z,29.1870,-90.6093,1.84,11.5,1111122 
LUMCON,ioos:station:LUMCON:102:1,2016-04-02T05:00:00Z,29.1870,-90.6093,1.8,11.33,1111122 
LUMCON,ioos:station:LUMCON:102:1,2016-04-02T05:15:00Z,29.1870,-90.6093,1.79,11.38,1111122 
LUMCON,ioos:station:LUMCON:102:1,2016-04-02T05:30:00Z,29.1870,-90.6093,1.77,11.27,1111122 
LUMCON,ioos:station:LUMCON:102:1,2016-04-02T05:45:00Z,29.1870,-90.6093,1.77,11.24,1111122 
LUMCON,ioos:station:LUMCON:102:1,2016-04-02T06:00:00Z,29.1870,-90.6093,1.75,11.18,1111122 
LUMCON,ioos:station:LUMCON:102:1,2016-04-02T06:15:00Z,29.1870,-90.6093,1.74,10.25,1111122 
LUMCON,ioos:station:LUMCON:102:1,2016-04-02T06:30:00Z,29.1870,-90.6093,1.72,10.46,1111122 
LUMCON,ioos:station:LUMCON:102:1,2016-04-02T06:45:00Z,29.1870,-90.6093,1.74,10.26,1111122 
LUMCON,ioos:station:LUMCON:102:1,2016-04-02T07:00:00Z,29.1870,-90.6093,1.77,10.05,1111122 
LUMCON,ioos:station:LUMCON:102:1,2016-04-02T07:15:00Z,29.1870,-90.6093,1.77,9.81,1111122 
LUMCON,ioos:station:LUMCON:102:1,2016-04-02T07:30:00Z,29.1870,-90.6093,1.8,9.92,1111122 
LUMCON,ioos:station:LUMCON:102:1,2016-04-02T07:45:00Z,29.1870,-90.6093,1.8,10.07,1111122 
LUMCON,ioos:station:LUMCON:102:1,2016-04-02T08:00:00Z,29.1870,-90.6093,1.77,10.09,1111122 
LUMCON,ioos:station:LUMCON:102:1,2016-04-02T08:15:00Z,29.1870,-90.6093,1.78,10.09,1111122 
LUMCON,ioos:station:LUMCON:102:1,2016-04-02T08:30:00Z,29.1870,-90.6093,1.75,10.15,1111122 
LUMCON,ioos:station:LUMCON:102:1,2016-04-02T08:45:00Z,29.1870,-90.6093,1.74,10.08,1111122 
LUMCON,ioos:station:LUMCON:102:1,2016-04-02T09:00:00Z,29.1870,-90.6093,1.73,10.26,1111122 
LUMCON,ioos:station:LUMCON:102:1,2016-04-02T09:15:00Z,29.1870,-90.6093,1.69,10.39,1111122 
LUMCON,ioos:station:LUMCON:102:1,2016-04-02T09:30:00Z,29.1870,-90.6093,1.69,10.46,1111122 
LUMCON,ioos:station:LUMCON:102:1,2016-04-02T09:45:00Z,29.1870,-90.6093,1.68,10.18,1111122 
LUMCON,ioos:station:LUMCON:102:1,2016-04-02T10:00:00Z,29.1870,-90.6093,1.68,10.02,1111122 
LUMCON,ioos:station:LUMCON:102:1,2016-04-02T10:15:00Z,29.1870,-90.6093,1.68,9.72,1111122 
LUMCON,ioos:station:LUMCON:102:1,2016-04-02T10:30:00Z,29.1870,-90.6093,1.68,9.78,1111122 
LUMCON,ioos:station:LUMCON:102:1,2016-04-02T10:45:00Z,29.1870,-90.6093,1.69,9.77,1111122 
LUMCON,ioos:station:LUMCON:102:1,2016-04-02T11:00:00Z,29.1870,-90.6093,1.67,9.62,1111122 
LUMCON,ioos:station:LUMCON:102:1,2016-04-02T11:15:00Z,29.1870,-90.6093,1.71,9.86,1111122 
LUMCON,ioos:station:LUMCON:102:1,2016-04-02T11:30:00Z,29.1870,-90.6093,1.71,9.75,1111122 
LUMCON,ioos:station:LUMCON:102:1,2016-04-02T11:45:00Z,29.1870,-90.6093,1.72,9.78,1111122 
LUMCON,ioos:station:LUMCON:102:1,2016-04-02T12:00:00Z,29.1870,-90.6093,1.73,9.85,1111122 
LUMCON,ioos:station:LUMCON:102:1,2016-04-02T12:15:00Z,29.1870,-90.6093,1.75,9.92,1111122 
LUMCON,ioos:station:LUMCON:102:1,2016-04-02T12:30:00Z,29.1870,-90.6093,1.78,10.01,1111122 
LUMCON,ioos:station:LUMCON:102:1,2016-04-02T12:45:00Z,29.1870,-90.6093,1.77,10.01,1111122 
LUMCON,ioos:station:LUMCON:102:1,2016-04-02T13:00:00Z,29.1870,-90.6093,1.8,10.26,1111122 
LUMCON,ioos:station:LUMCON:102:1,2016-04-02T13:15:00Z,29.1870,-90.6093,1.81,10.19,1111122 
LUMCON,ioos:station:LUMCON:102:1,2016-04-02T13:30:00Z,29.1870,-90.6093,1.82,10.37,1111122 
LUMCON,ioos:station:LUMCON:102:1,2016-04-02T13:45:00Z,29.1870,-90.6093,1.85,10.08,1111122 
LUMCON,ioos:station:LUMCON:102:1,2016-04-02T14:00:00Z,29.1870,-90.6093,1.88,9.83,1111122 
LUMCON,ioos:station:LUMCON:102:1,2016-04-02T14:15:00Z,29.1870,-90.6093,1.87,9.26,1111122 
LUMCON,ioos:station:LUMCON:102:1,2016-04-02T14:30:00Z,29.1870,-90.6093,1.89,8.95,1111122 
LUMCON,ioos:station:LUMCON:102:1,2016-04-02T14:45:00Z,29.1870,-90.6093,1.89,9.05,1111122 
LUMCON,ioos:station:LUMCON:102:1,2016-04-02T15:00:00Z,29.1870,-90.6093,1.93,9.29,1111122 
LUMCON,ioos:station:LUMCON:102:1,2016-04-02T15:15:00Z,29.1870,-90.6093,1.93,9.51,1111122 
LUMCON,ioos:station:LUMCON:102:1,2016-04-02T15:30:00Z,29.1870,-90.6093,1.97,9.63,1111122 
LUMCON,ioos:station:LUMCON:102:1,2016-04-02T15:45:00Z,29.1870,-90.6093,2.01,10.12,1111122 
LUMCON,ioos:station:LUMCON:102:1,2016-04-02T16:00:00Z,29.1870,-90.6093,2.02,10.33,1111122 
LUMCON,ioos:station:LUMCON:102:1,2016-04-02T16:15:00Z,29.1870,-90.6093,2.03,10.58,1111122 
LUMCON,ioos:station:LUMCON:102:1,2016-04-02T16:30:00Z,29.1870,-90.6093,2.04,10.71,1111122 
LUMCON,ioos:station:LUMCON:102:1,2016-04-02T16:45:00Z,29.1870,-90.6093,2.07,10.77,1111122 
LUMCON,ioos:station:LUMCON:102:1,2016-04-02T17:00:00Z,29.1870,-90.6093,2.05,10.86,1111122 
LUMCON,ioos:station:LUMCON:102:1,2016-04-02T17:15:00Z,29.1870,-90.6093,2.05,10.96,1111122 
LUMCON,ioos:station:LUMCON:102:1,2016-04-02T17:30:00Z,29.1870,-90.6093,2.06,11.05,1111122 
LUMCON,ioos:station:LUMCON:102:1,2016-04-02T17:45:00Z,29.1870,-90.6093,2.05,11.09,1111122 
LUMCON,ioos:station:LUMCON:102:1,2016-04-02T18:00:00Z,29.1870,-90.6093,2.07,11.13,1111122 
LUMCON,ioos:station:LUMCON:102:1,2016-04-02T18:15:00Z,29.1870,-90.6093,2.1,11.21,1111122 
LUMCON,ioos:station:LUMCON:102:1,2016-04-02T18:30:00Z,29.1870,-90.6093,2.11,11.26,1111122 
LUMCON,ioos:station:LUMCON:102:1,2016-04-02T18:45:00Z,29.1870,-90.6093,2.12,11.29,1111122 
LUMCON,ioos:station:LUMCON:102:1,2016-04-02T19:00:00Z,29.1870,-90.6093,2.12,11.32,1111122 
LUMCON,ioos:station:LUMCON:102:1,2016-04-02T19:15:00Z,29.1870,-90.6093,2.13,11.39,1111122 
LUMCON,ioos:station:LUMCON:102:1,2016-04-02T19:30:00Z,29.1870,-90.6093,2.12,11.37,1111122 
LUMCON,ioos:station:LUMCON:102:1,2016-04-02T19:45:00Z,29.1870,-90.6093,2.13,11.39,1111122 
LUMCON,ioos:station:LUMCON:102:1,2016-04-02T20:00:00Z,29.1870,-90.6093,2.14,11.44,1111122 
LUMCON,ioos:station:LUMCON:102:1,2016-04-02T20:15:00Z,29.1870,-90.6093,2.13,11.42,1111122 
LUMCON,ioos:station:LUMCON:102:1,2016-04-02T20:30:00Z,29.1870,-90.6093,2.13,11.44,1111122 
LUMCON,ioos:station:LUMCON:102:1,2016-04-02T20:45:00Z,29.1870,-90.6093,2.14,11.37,1111122 
LUMCON,ioos:station:LUMCON:102:1,2016-04-02T21:00:00Z,29.1870,-90.6093,2.15,11.46,1111122 
LUMCON,ioos:station:LUMCON:102:1,2016-04-02T21:15:00Z,29.1870,-90.6093,2.15,11.47,1111122 
LUMCON,ioos:station:LUMCON:102:1,2016-04-02T21:30:00Z,29.1870,-90.6093,2.16,11.61,1111122 
LUMCON,ioos:station:LUMCON:102:1,2016-04-02T21:45:00Z,29.1870,-90.6093,2.15,11.47,1111122 
LUMCON,ioos:station:LUMCON:102:1,2016-04-02T22:00:00Z,29.1870,-90.6093,2.15,11.44,1111122 
LUMCON,ioos:station:LUMCON:102:1,2016-04-02T22:15:00Z,29.1870,-90.6093,2.15,11.48,1111122 
LUMCON,ioos:station:LUMCON:102:1,2016-04-02T22:30:00Z,29.1870,-90.6093,2.15,11.73,1111122 
LUMCON,ioos:station:LUMCON:102:1,2016-04-02T22:45:00Z,29.1870,-90.6093,2.14,11.64,1111122 
LUMCON,ioos:station:LUMCON:102:1,2016-04-02T23:00:00Z,29.1870,-90.6093,2.14,11.75,1111122 
LUMCON,ioos:station:LUMCON:102:1,2016-04-02T23:15:00Z,29.1870,-90.6093,2.14,11.69,1111122 
LUMCON,ioos:station:LUMCON:102:1,2016-04-02T23:30:00Z,29.1870,-90.6093,2.13,11.77,1111122 
LUMCON,ioos:station:LUMCON:102:1,2016-04-02T23:45:00Z,29.1870,-90.6093,2.09,11.79,1111122 
LUMCON,ioos:station:LUMCON:102:1,2016-04-03T00:00:00Z,29.1870,-90.6093,2.11,11.55,1111122 
LUMCON,ioos:station:LUMCON:102:1,2016-04-03T00:15:00Z,29.1870,-90.6093,2.1,11.67,1111122 
LUMCON,ioos:station:LUMCON:102:1,2016-04-03T00:30:00Z,29.1870,-90.6093,2.11,11.77,1111122 
LUMCON,ioos:station:LUMCON:102:1,2016-04-03T00:45:00Z,29.1870,-90.6093,2.11,11.95,1111122 
LUMCON,ioos:station:LUMCON:102:1,2016-04-03T01:00:00Z,29.1870,-90.6093,2.11,12.04,1111122 
LUMCON,ioos:station:LUMCON:102:1,2016-04-03T01:15:00Z,29.1870,-90.6093,2.09,11.91,1111122 
LUMCON,ioos:station:LUMCON:102:1,2016-04-03T01:30:00Z,29.1870,-90.6093,2.09,12.0,1111122 
LUMCON,ioos:station:LUMCON:102:1,2016-04-03T01:45:00Z,29.1870,-90.6093,2.06,11.84,1111122 
LUMCON,ioos:station:LUMCON:102:1,2016-04-03T02:00:00Z,29.1870,-90.6093,2.06,11.88,1111122 
LUMCON,ioos:station:LUMCON:102:1,2016-04-03T02:15:00Z,29.1870,-90.6093,2.03,11.96,1111122 
LUMCON,ioos:station:LUMCON:102:1,2016-04-03T02:30:00Z,29.1870,-90.6093,2.02,11.81,1111122 
LUMCON,ioos:station:LUMCON:102:1,2016-04-03T02:45:00Z,29.1870,-90.6093,2.02,12.08,1111122 
LUMCON,ioos:station:LUMCON:102:1,2016-04-03T03:00:00Z,29.1870,-90.6093,2.0,12.12,1111122 
LUMCON,ioos:station:LUMCON:102:1,2016-04-03T03:15:00Z,29.1870,-90.6093,1.98,11.3,1111122 
LUMCON,ioos:station:LUMCON:102:1,2016-04-03T03:30:00Z,29.1870,-90.6093,1.97,10.85,1111122 
LUMCON,ioos:station:LUMCON:102:1,2016-04-03T03:45:00Z,29.1870,-90.6093,1.95,10.87,1111122 
LUMCON,ioos:station:LUMCON:102:1,2016-04-03T04:00:00Z,29.1870,-90.6093,1.95,10.89,1111122 
LUMCON,ioos:station:LUMCON:102:1,2016-04-03T04:15:00Z,29.1870,-90.6093,1.94,11.01,1111122 
LUMCON,ioos:station:LUMCON:102:1,2016-04-03T04:30:00Z,29.1870,-90.6093,1.93,11.06,1111122 
LUMCON,ioos:station:LUMCON:102:1,2016-04-03T04:45:00Z,29.1870,-90.6093,1.91,10.84,1111122 
LUMCON,ioos:station:LUMCON:102:1,2016-04-03T05:00:00Z,29.1870,-90.6093,1.9,10.84,1111122 
LUMCON,ioos:station:LUMCON:102:1,2016-04-03T05:15:00Z,29.1870,-90.6093,1.88,10.61,1111122 
LUMCON,ioos:station:LUMCON:102:1,2016-04-03T05:30:00Z,29.1870,-90.6093,1.87,10.32,1111122 
LUMCON,ioos:station:LUMCON:102:1,2016-04-03T05:45:00Z,29.1870,-90.6093,1.87,10.17,1111122 
LUMCON,ioos:station:LUMCON:102:1,2016-04-03T06:00:00Z,29.1870,-90.6093,1.85,10.08,1111122 
LUMCON,ioos:station:LUMCON:102:1,2016-04-03T06:15:00Z,29.1870,-90.6093,1.85,10.03,1111122 
LUMCON,ioos:station:LUMCON:102:1,2016-04-03T06:30:00Z,29.1870,-90.6093,1.85,10.16,1111122 
LUMCON,ioos:station:LUMCON:102:1,2016-04-03T06:45:00Z,29.1870,-90.6093,1.85,10.14,1111122 
LUMCON,ioos:station:LUMCON:102:1,2016-04-03T07:00:00Z,29.1870,-90.6093,1.84,10.15,1111122 
LUMCON,ioos:station:LUMCON:102:1,2016-04-03T07:15:00Z,29.1870,-90.6093,1.83,10.01,1111122 
LUMCON,ioos:station:LUMCON:102:1,2016-04-03T07:30:00Z,29.1870,-90.6093,1.81,10.11,1111122 
LUMCON,ioos:station:LUMCON:102:1,2016-04-03T07:45:00Z,29.1870,-90.6093,1.81,9.94,1111122 
LUMCON,ioos:station:LUMCON:102:1,2016-04-03T08:00:00Z,29.1870,-90.6093,1.81,9.94,1111122 
LUMCON,ioos:station:LUMCON:102:1,2016-04-03T08:15:00Z,29.1870,-90.6093,1.8,9.83,1111122 
LUMCON,ioos:station:LUMCON:102:1,2016-04-03T08:30:00Z,29.1870,-90.6093,1.79,9.79,1111122 
LUMCON,ioos:station:LUMCON:102:1,2016-04-03T08:45:00Z,29.1870,-90.6093,1.79,9.74,1111122 
LUMCON,ioos:station:LUMCON:102:1,2016-04-03T09:00:00Z,29.1870,-90.6093,1.79,9.76,1111122 
LUMCON,ioos:station:LUMCON:102:1,2016-04-03T09:15:00Z,29.1870,-90.6093,1.78,9.88,1111122 
LUMCON,ioos:station:LUMCON:102:1,2016-04-03T09:30:00Z,29.1870,-90.6093,1.78,9.71,1111122 
LUMCON,ioos:station:LUMCON:102:1,2016-04-03T09:45:00Z,29.1870,-90.6093,1.79,9.72,1111122 
LUMCON,ioos:station:LUMCON:102:1,2016-04-03T10:00:00Z,29.1870,-90.6093,1.78,9.7,1111122 
LUMCON,ioos:station:LUMCON:102:1,2016-04-03T10:15:00Z,29.1870,-90.6093,1.78,9.61,1111122 
LUMCON,ioos:station:LUMCON:102:1,2016-04-03T10:30:00Z,29.1870,-90.6093,1.78,9.57,1111122 
LUMCON,ioos:station:LUMCON:102:1,2016-04-03T10:45:00Z,29.1870,-90.6093,1.78,9.53,1111122 
LUMCON,ioos:station:LUMCON:102:1,2016-04-03T11:00:00Z,29.1870,-90.6093,1.78,9.47,1111122 
LUMCON,ioos:station:LUMCON:102:1,2016-04-03T11:15:00Z,29.1870,-90.6093,1.79,9.49,1111122 
LUMCON,ioos:station:LUMCON:102:1,2016-04-03T11:30:00Z,29.1870,-90.6093,1.79,9.53,1111122 
LUMCON,ioos:station:LUMCON:102:1,2016-04-03T11:45:00Z,29.1870,-90.6093,1.79,9.49,1111122 
LUMCON,ioos:station:LUMCON:102:1,2016-04-03T12:00:00Z,29.1870,-90.6093,1.8,9.44,1111122 
LUMCON,ioos:station:LUMCON:102:1,2016-04-03T12:15:00Z,29.1870,-90.6093,1.81,9.62,1111122 
LUMCON,ioos:station:LUMCON:102:1,2016-04-03T12:30:00Z,29.1870,-90.6093,1.84,9.28,1111122 
LUMCON,ioos:station:LUMCON:102:1,2016-04-03T12:45:00Z,29.1870,-90.6093,1.84,9.24,1111122 
LUMCON,ioos:station:LUMCON:102:1,2016-04-03T13:00:00Z,29.1870,-90.6093,1.84,9.25,1111122 
LUMCON,ioos:station:LUMCON:102:1,2016-04-03T13:15:00Z,29.1870,-90.6093,1.86,9.35,1111122 
LUMCON,ioos:station:LUMCON:102:1,2016-04-03T13:30:00Z,29.1870,-90.6093,1.88,9.38,1111122 
LUMCON,ioos:station:LUMCON:102:1,2016-04-03T13:45:00Z,29.1870,-90.6093,1.89,9.25,1111122 
LUMCON,ioos:station:LUMCON:102:1,2016-04-03T14:00:00Z,29.1870,-90.6093,1.91,9.35,1111122 
LUMCON,ioos:station:LUMCON:102:1,2016-04-03T14:15:00Z,29.1870,-90.6093,1.93,9.45,1111122 
LUMCON,ioos:station:LUMCON:102:1,2016-04-03T14:30:00Z,29.1870,-90.6093,1.94,9.36,1111122 
LUMCON,ioos:station:LUMCON:102:1,2016-04-03T14:45:00Z,29.1870,-90.6093,1.95,9.41,1111122 
LUMCON,ioos:station:LUMCON:102:1,2016-04-03T15:00:00Z,29.1870,-90.6093,1.97,9.38,1111122 
LUMCON,ioos:station:LUMCON:102:1,2016-04-03T15:15:00Z,29.1870,-90.6093,1.98,9.5,1111122 
LUMCON,ioos:station:LUMCON:102:1,2016-04-03T15:30:00Z,29.1870,-90.6093,1.99,9.46,1111122 
LUMCON,ioos:station:LUMCON:102:1,2016-04-03T15:45:00Z,29.1870,-90.6093,2.02,9.65,1111122 
LUMCON,ioos:station:LUMCON:102:1,2016-04-03T16:00:00Z,29.1870,-90.6093,2.03,9.75,1111122 
LUMCON,ioos:station:LUMCON:102:1,2016-04-03T16:15:00Z,29.1870,-90.6093,2.04,9.65,1111122 
LUMCON,ioos:station:LUMCON:102:1,2016-04-03T16:30:00Z,29.1870,-90.6093,2.06,9.89,1111122 
LUMCON,ioos:station:LUMCON:102:1,2016-04-03T16:45:00Z,29.1870,-90.6093,2.08,10.07,1111122 
LUMCON,ioos:station:LUMCON:102:1,2016-04-03T17:00:00Z,29.1870,-90.6093,2.08,10.17,1111122 
LUMCON,ioos:station:LUMCON:102:1,2016-04-03T17:15:00Z,29.1870,-90.6093,2.09,10.36,1111122 
LUMCON,ioos:station:LUMCON:102:1,2016-04-03T17:30:00Z,29.1870,-90.6093,2.1,10.65,1111122 
LUMCON,ioos:station:LUMCON:102:1,2016-04-03T17:45:00Z,29.1870,-90.6093,2.11,10.73,1111122 